"Period start","avg(HW err(1)/warn(2) (#))","avg(Visibility (m))","avg(Weather code (#))","avg(Precip intensity (mm/h))","min(HW err(1)/warn(2) (#))","max(HW err(1)/warn(2) (#))","std(HW err(1)/warn(2) (#))","med(HW err(1)/warn(2) (#))","min(Visibility (m))","max(Visibility (m))","std(Visibility (m))","med(Visibility (m))","min(Weather code (#))","max(Weather code (#))","std(Weather code (#))","med(Weather code (#))","min(Precip intensity (mm/h))","max(Precip intensity (mm/h))","std(Precip intensity (mm/h))","med(Precip intensity (mm/h))"
2014-03-13 00:00:00,2,9770,4,0.00,2,2,0,2,4884,16104,3700,9172,0,10,5,0,0.00,0.00,0.00,0.00
2014-03-13 00:10:00,2,11918,3,0.00,2,2,0,2,4043,20966,4404,11376,0,10,5,0,0.00,0.00,0.00,0.00
2014-03-13 00:20:00,2,9767,0,0.00,2,2,0,2,7107,13126,1935,9572,0,0,0,0,0.00,0.00,0.00,0.00
2014-03-13 00:30:00,2,18043,0,0.00,2,2,0,2,9552,28942,5855,17803,0,0,0,0,0.00,0.00,0.00,0.00
2014-03-13 00:40:00,2,17223,0,0.00,2,2,0,2,5603,25190,6162,17230,0,0,0,0,0.00,0.00,0.00,0.00
2014-03-13 00:50:00,2,20361,0,0.00,2,2,0,2,15979,24258,2695,21328,0,0,0,0,0.00,0.00,0.00,0.00
2014-03-13 01:00:00,2,21570,0,0.00,2,2,0,2,12418,28257,4588,22234,0,0,0,0,0.00,0.00,0.00,0.00
2014-03-13 01:10:00,2,20355,0,0.00,2,2,0,2,13635,25678,3882,21353,0,0,0,0,0.00,0.00,0.00,0.00
2014-03-13 01:20:00,2,13426,0,0.00,2,2,0,2,10531,17333,2009,13421,0,0,0,0,0.00,0.00,0.00,0.00
2014-03-13 01:30:00,2,16208,0,0.00,2,2,0,2,9303,22984,3933,15865,0,0,0,0,0.00,0.00,0.00,0.00
2014-03-13 01:40:00,2,21971,0,0.00,2,2,0,2,15653,33321,5360,21806,0,0,0,0,0.00,0.00,0.00,0.00
2014-03-13 01:50:00,2,24911,0,0.00,2,2,0,2,20626,30107,3006,25829,0,0,0,0,0.00,0.00,0.00,0.00
2014-03-13 02:00:00,2,29720,0,0.00,2,2,0,2,20273,41437,7158,28327,0,0,0,0,0.00,0.00,0.00,0.00
2014-03-13 02:10:00,2,23100,0,0.00,2,2,0,2,16235,29863,4239,22888,0,0,0,0,0.00,0.00,0.00,0.00
2014-03-13 02:20:00,2,27836,0,0.00,2,2,0,2,18191,35602,5226,26544,0,0,0,0,0.00,0.00,0.00,0.00
2014-03-13 02:30:00,2,28755,0,0.00,2,2,0,2,22519,34261,3515,29066,0,0,0,0,0.00,0.00,0.00,0.00
2014-03-13 02:40:00,2,23475,0,0.00,2,2,0,2,15443,32356,4527,23386,0,0,0,0,0.00,0.00,0.00,0.00
2014-03-13 02:50:00,2,21154,0,0.00,2,2,0,2,15794,32594,4916,19983,0,0,0,0,0.00,0.00,0.00,0.00
2014-03-13 03:00:00,2,20854,0,0.00,2,2,0,2,16891,25449,2623,20377,0,0,0,0,0.00,0.00,0.00,0.00
2014-03-13 03:10:00,2,24616,0,0.00,2,2,0,2,17604,29118,4309,26326,0,0,0,0,0.00,0.00,0.00,0.00
2014-03-13 03:20:00,2,22130,0,0.00,2,2,0,2,17379,28383,3039,21829,0,0,0,0,0.00,0.00,0.00,0.00
2014-03-13 03:30:00,2,20370,0,0.00,2,2,0,2,15197,31897,4661,19354,0,0,0,0,0.00,0.00,0.00,0.00
2014-03-13 03:40:00,2,21498,0,0.00,2,2,0,2,16704,29095,3321,21224,0,0,0,0,0.00,0.00,0.00,0.00
2014-03-13 03:50:00,2,18292,0,0.00,2,2,0,2,12115,26397,3789,17036,0,0,0,0,0.00,0.00,0.00,0.00
2014-03-13 04:00:00,2,14089,0,0.00,2,2,0,2,11036,16527,1974,14528,0,0,0,0,0.00,0.00,0.00,0.00
2014-03-13 04:10:00,2,13458,0,0.00,2,2,0,2,6115,20471,3398,14109,0,0,0,0,0.00,0.00,0.00,0.00
2014-03-13 04:20:00,2,14465,0,0.00,2,2,0,2,6972,27396,5443,12636,0,0,0,0,0.00,0.00,0.00,0.00
2014-03-13 04:30:00,2,12139,0,0.00,2,2,0,2,5765,18057,3322,12066,0,0,0,0,0.00,0.00,0.00,0.00
2014-03-13 04:40:00,2,14048,0,0.00,2,2,0,2,6717,23264,4561,13490,0,0,0,0,0.00,0.00,0.00,0.00
2014-03-13 04:50:00,2,14421,0,0.00,2,2,0,2,5480,24462,5662,14568,0,0,0,0,0.00,0.00,0.00,0.00
2014-03-13 05:00:00,2,10856,0,0.00,2,2,0,2,6118,13222,2514,11962,0,0,0,0,0.00,0.00,0.00,0.00
2014-03-13 05:10:00,2,10353,0,0.00,2,2,0,2,5557,14838,2595,10710,0,0,0,0,0.00,0.00,0.00,0.00
2014-03-13 05:20:00,2,18558,0,0.00,2,2,0,2,13331,28930,4279,17701,0,0,0,0,0.00,0.00,0.00,0.00
2014-03-13 05:30:00,2,18050,0,0.00,2,2,0,2,10812,23597,3770,17813,0,0,0,0,0.00,0.00,0.00,0.00
2014-03-13 05:40:00,2,18883,0,0.00,2,2,0,2,14578,22885,2318,19495,0,0,0,0,0.00,0.00,0.00,0.00
2014-03-13 05:50:00,2,19132,0,0.00,2,2,0,2,12678,23287,3588,19548,0,0,0,0,0.00,0.00,0.00,0.00
2014-03-13 06:00:00,2,21449,0,0.00,2,2,0,2,15318,31961,4912,22126,0,0,0,0,0.00,0.00,0.00,0.00
2014-03-13 06:10:00,2,17664,0,0.00,2,2,0,2,11174,22628,3194,17894,0,0,0,0,0.00,0.00,0.00,0.00
2014-03-13 06:20:00,2,15360,0,0.00,2,2,0,2,8558,26239,5313,14636,0,0,0,0,0.00,0.00,0.00,0.00
2014-03-13 06:30:00,2,17000,0,0.00,2,2,0,2,11375,22508,4233,15504,0,0,0,0,0.00,0.00,0.00,0.00
2014-03-13 06:40:00,2,15159,0,0.00,2,2,0,2,10443,18808,2636,16185,0,0,0,0,0.00,0.00,0.00,0.00
2014-03-13 06:50:00,2,16897,0,0.00,2,2,0,2,13626,20647,2212,16506,0,0,0,0,0.00,0.00,0.00,0.00
2014-03-13 07:00:00,2,17909,0,0.00,2,2,0,2,11827,21733,2898,17934,0,0,0,0,0.00,0.00,0.00,0.00
2014-03-13 07:10:00,2,18033,0,0.00,2,2,0,2,12052,23325,3280,18632,0,0,0,0,0.00,0.00,0.00,0.00
2014-03-13 07:20:00,2,10875,0,0.00,2,2,0,2,8110,14099,1792,10542,0,0,0,0,0.00,0.00,0.00,0.00
2014-03-13 07:30:00,2,15496,0,0.00,2,2,0,2,12040,18232,2089,15822,0,0,0,0,0.00,0.00,0.00,0.00
2014-03-13 07:40:00,2,19263,0,0.00,2,2,0,2,14257,24628,3115,18768,0,0,0,0,0.00,0.00,0.00,0.00
2014-03-13 07:50:00,2,17622,0,0.00,2,2,0,2,14064,25654,3047,16881,0,0,0,0,0.00,0.00,0.00,0.00
2014-03-13 08:00:00,2,21604,0,0.00,2,2,0,2,18129,24928,2445,21472,0,0,0,0,0.00,0.00,0.00,0.00
2014-03-13 08:10:00,2,23242,0,0.00,2,2,0,2,19748,28739,2375,23398,0,0,0,0,0.00,0.00,0.00,0.00
2014-03-13 08:20:00,2,22646,0,0.00,2,2,0,2,20598,26537,1589,22678,0,0,0,0,0.00,0.00,0.00,0.00
2014-03-13 08:30:00,2,23635,0,0.00,2,2,0,2,19894,27576,2260,23766,0,0,0,0,0.00,0.00,0.00,0.00
2014-03-13 08:40:00,2,24094,0,0.00,2,2,0,2,20843,27464,2039,24412,0,0,0,0,0.00,0.00,0.00,0.00
2014-03-13 08:50:00,2,24947,0,0.00,2,2,0,2,21327,28385,1884,25200,0,0,0,0,0.00,0.00,0.00,0.00
2014-03-13 09:00:00,2,23666,0,0.00,2,2,0,2,21324,25054,935,23617,0,0,0,0,0.00,0.00,0.00,0.00
2014-03-13 09:10:00,2,25336,0,0.00,2,2,0,2,21851,30440,2624,24494,0,0,0,0,0.00,0.00,0.00,0.00
2014-03-13 09:20:00,2,26185,0,0.00,2,2,0,2,24224,28858,1493,25929,0,0,0,0,0.00,0.00,0.00,0.00
2014-03-13 09:30:00,2,25165,0,0.00,2,2,0,2,23178,26723,1216,25418,0,0,0,0,0.00,0.00,0.00,0.00
2014-03-13 09:40:00,2,23087,0,0.00,2,2,0,2,21531,24498,940,23090,0,0,0,0,0.00,0.00,0.00,0.00
2014-03-13 09:50:00,2,21888,0,0.00,2,2,0,2,19871,25959,1759,21623,0,0,0,0,0.00,0.00,0.00,0.00
2014-03-13 10:00:00,2,22508,0,0.00,2,2,0,2,19944,27041,2071,22156,0,0,0,0,0.00,0.00,0.00,0.00
2014-03-13 10:10:00,2,17836,0,0.00,2,2,0,2,11228,21418,2576,18442,0,0,0,0,0.00,0.00,0.00,0.00
2014-03-13 10:20:00,2,14125,0,0.00,2,2,0,2,11455,17880,1940,13315,0,0,0,0,0.00,0.00,0.00,0.00
2014-03-13 10:30:00,2,10928,0,0.00,2,2,0,2,7879,14014,2016,10933,0,0,0,0,0.00,0.00,0.00,0.00
2014-03-13 10:40:00,2,9850,0,0.00,2,2,0,2,7821,11808,1419,9627,0,0,0,0,0.00,0.00,0.00,0.00
2014-03-13 10:50:00,2,11257,0,0.00,2,2,0,2,7979,13699,1735,11204,0,0,0,0,0.00,0.00,0.00,0.00
2014-03-13 11:00:00,2,14522,0,0.00,2,2,0,2,10705,16683,1974,14780,0,0,0,0,0.00,0.00,0.00,0.00
2014-03-13 11:10:00,2,15492,0,0.00,2,2,0,2,14011,17809,1120,15288,0,0,0,0,0.00,0.00,0.00,0.00
2014-03-13 11:20:00,2,17806,0,0.00,2,2,0,2,15697,19395,1165,17616,0,0,0,0,0.00,0.00,0.00,0.00
2014-03-13 11:30:00,2,16396,0,0.00,2,2,0,2,13795,18661,1736,16630,0,0,0,0,0.00,0.00,0.00,0.00
2014-03-13 11:40:00,2,18389,0,0.00,2,2,0,2,15187,21122,1911,18532,0,0,0,0,0.00,0.00,0.00,0.00
2014-03-13 11:50:00,2,20452,0,0.00,2,2,0,2,17442,23898,2181,19842,0,0,0,0,0.00,0.00,0.00,0.00
2014-03-13 12:00:00,2,18899,0,0.00,2,2,0,2,16112,22383,1774,18905,0,0,0,0,0.00,0.00,0.00,0.00
2014-03-13 12:10:00,2,13969,0,0.00,2,2,0,2,12719,15710,972,13722,0,0,0,0,0.00,0.00,0.00,0.00
2014-03-13 12:20:00,2,15728,0,0.00,2,2,0,2,14170,17960,1109,15346,0,0,0,0,0.00,0.00,0.00,0.00
2014-03-13 12:30:00,2,15669,0,0.00,2,2,0,2,14779,16977,816,15304,0,0,0,0,0.00,0.00,0.00,0.00
2014-03-13 12:40:00,2,16983,0,0.00,2,2,0,2,15802,18375,973,16825,0,0,0,0,0.00,0.00,0.00,0.00
2014-03-13 12:50:00,2,18881,0,0.00,2,2,0,2,14330,22102,2501,19338,0,0,0,0,0.00,0.00,0.00,0.00
2014-03-13 13:00:00,2,20910,0,0.00,2,2,0,2,19817,22730,914,20728,0,0,0,0,0.00,0.00,0.00,0.00
2014-03-13 13:10:00,2,23197,0,0.00,2,2,0,2,19559,28014,2524,22599,0,0,0,0,0.00,0.00,0.00,0.00
2014-03-13 13:20:00,2,21706,0,0.00,2,2,0,2,20847,22743,640,21560,0,0,0,0,0.00,0.00,0.00,0.00
2014-03-13 13:30:00,2,20954,51,0.01,2,2,0,2,15595,24638,2961,21718,0,77,33,71,0.00,0.05,0.02,0.00
2014-03-13 13:40:00,2,16979,72,0.03,2,2,0,2,14963,19675,1623,16824,71,77,2,71,0.00,0.15,0.05,0.00
2014-03-13 13:50:00,2,14929,75,0.04,2,2,0,2,11610,18947,2494,13770,71,78,3,77,0.00,0.15,0.06,0.03
2014-03-13 14:00:00,2,11639,76,0.01,2,2,0,2,9423,13985,1398,11972,71,78,3,77,0.00,0.05,0.02,0.00
2014-03-13 14:10:00,2,8492,77,0.01,2,2,0,2,5654,10077,1426,9143,77,77,0,77,0.00,0.05,0.02,0.00
2014-03-13 14:20:00,2,5974,77,0.09,2,2,0,2,3425,8924,1795,5808,77,77,0,77,0.00,0.20,0.06,0.05
2014-03-13 14:30:00,2,6551,75,0.03,2,2,0,2,3460,11004,2113,6677,71,77,3,77,0.00,0.15,0.05,0.00
2014-03-13 14:40:00,2,3511,77,0.11,2,2,0,2,1729,5543,1249,3730,77,77,0,77,0.00,0.35,0.09,0.08
2014-03-13 14:50:00,2,2830,73,0.34,2,2,0,2,1848,3635,549,2828,71,77,3,71,0.10,0.55,0.15,0.35
2014-03-13 15:00:00,2,4124,72,0.06,2,2,0,2,2216,5168,827,4204,71,77,2,71,0.00,0.25,0.08,0.03
2014-03-13 15:10:00,2,5841,77,0.02,2,2,0,2,4317,8752,1607,5040,77,77,0,77,0.00,0.05,0.02,0.00
2014-03-13 15:20:00,2,7972,77,0.00,2,2,0,2,3838,11543,2296,8370,77,77,0,77,0.00,0.00,0.00,0.00
2014-03-13 15:30:00,2,9859,78,0.00,2,2,0,2,5760,14663,2592,10196,77,78,0,78,0.00,0.00,0.00,0.00
2014-03-13 15:40:00,2,18345,62,0.00,2,2,0,2,15995,20882,1386,18170,0,78,31,78,0.00,0.00,0.00,0.00
2014-03-13 15:50:00,2,19676,0,0.00,2,2,0,2,15319,23614,3070,18905,0,0,0,0,0.00,0.00,0.00,0.00
2014-03-13 16:00:00,2,23381,0,0.00,2,2,0,2,15586,28579,4167,23832,0,0,0,0,0.00,0.00,0.00,0.00
2014-03-13 16:10:00,2,19640,0,0.00,2,2,0,2,5024,25873,5925,21580,0,0,0,0,0.00,0.00,0.00,0.00
2014-03-13 16:20:00,2,19933,0,0.00,2,2,0,2,17557,23183,1853,19270,0,0,0,0,0.00,0.00,0.00,0.00
2014-03-13 16:30:00,2,17564,0,0.00,2,2,0,2,9011,22622,4280,18728,0,0,0,0,0.00,0.00,0.00,0.00
2014-03-13 16:40:00,2,11613,0,0.00,2,2,0,2,7653,16778,3039,10733,0,0,0,0,0.00,0.00,0.00,0.00
2014-03-13 16:50:00,2,12747,0,0.00,2,2,0,2,7201,19002,3480,12833,0,0,0,0,0.00,0.00,0.00,0.00
2014-03-13 17:00:00,2,12144,0,0.00,2,2,0,2,8777,17626,2351,12066,0,0,0,0,0.00,0.00,0.00,0.00
2014-03-13 17:10:00,2,12079,0,0.00,2,2,0,2,10048,14157,1270,12193,0,0,0,0,0.00,0.00,0.00,0.00
2014-03-13 17:20:00,2,14836,0,0.00,2,2,0,2,12963,17152,1243,14566,0,0,0,0,0.00,0.00,0.00,0.00
2014-03-13 17:30:00,2,17654,0,0.00,2,2,0,2,13046,21224,2460,17756,0,0,0,0,0.00,0.00,0.00,0.00
2014-03-13 17:40:00,2,19458,0,0.00,2,2,0,2,14497,23851,3122,19732,0,0,0,0,0.00,0.00,0.00,0.00
2014-03-13 17:50:00,2,24499,0,0.00,2,2,0,2,20829,28223,2339,24828,0,0,0,0,0.00,0.00,0.00,0.00
2014-03-13 18:00:00,2,28191,0,0.00,2,2,0,2,24916,33435,2348,27564,0,0,0,0,0.00,0.00,0.00,0.00
2014-03-13 18:10:00,2,25320,0,0.00,2,2,0,2,21706,29401,2492,24611,0,0,0,0,0.00,0.00,0.00,0.00
2014-03-13 18:20:00,2,26234,0,0.00,2,2,0,2,23151,29102,1892,26635,0,0,0,0,0.00,0.00,0.00,0.00
2014-03-13 18:30:00,2,28318,0,0.00,2,2,0,2,23152,34040,3013,29116,0,0,0,0,0.00,0.00,0.00,0.00
2014-03-13 18:40:00,2,26574,0,0.00,2,2,0,2,22159,29755,2338,26345,0,0,0,0,0.00,0.00,0.00,0.00
2014-03-13 18:50:00,2,30709,0,0.00,2,2,0,2,25962,36519,3771,30002,0,0,0,0,0.00,0.00,0.00,0.00
2014-03-13 19:00:00,2,27496,0,0.00,2,2,0,2,23633,37023,3871,26658,0,0,0,0,0.00,0.00,0.00,0.00
2014-03-13 19:10:00,2,26690,0,0.00,2,2,0,2,22724,36439,4205,25386,0,0,0,0,0.00,0.00,0.00,0.00
2014-03-13 19:20:00,2,26281,0,0.00,2,2,0,2,23373,28989,1670,25880,0,0,0,0,0.00,0.00,0.00,0.00
2014-03-13 19:30:00,2,26697,0,0.00,2,2,0,2,23503,33086,2992,25978,0,0,0,0,0.00,0.00,0.00,0.00
2014-03-13 19:40:00,2,28465,0,0.00,2,2,0,2,24627,30789,1552,28882,0,0,0,0,0.00,0.00,0.00,0.00
2014-03-13 19:50:00,2,29376,0,0.00,2,2,0,2,25064,33677,2402,29408,0,0,0,0,0.00,0.00,0.00,0.00
2014-03-13 20:00:00,2,27537,0,0.00,2,2,0,2,22949,31043,2401,27200,0,0,0,0,0.00,0.00,0.00,0.00
2014-03-13 20:10:00,2,27956,0,0.00,2,2,0,2,25066,31392,2241,27448,0,0,0,0,0.00,0.00,0.00,0.00
2014-03-13 20:20:00,2,27557,0,0.00,2,2,0,2,25035,31814,2366,26376,0,0,0,0,0.00,0.00,0.00,0.00
2014-03-13 20:30:00,2,29138,0,0.00,2,2,0,2,22884,33296,3051,29326,0,0,0,0,0.00,0.00,0.00,0.00
2014-03-13 20:40:00,2,31602,0,0.00,2,2,0,2,26723,36715,3077,32851,0,0,0,0,0.00,0.00,0.00,0.00
2014-03-13 20:50:00,2,29325,0,0.00,2,2,0,2,25895,32660,2386,30087,0,0,0,0,0.00,0.00,0.00,0.00
2014-03-13 21:00:00,2,28012,0,0.00,2,2,0,2,23905,34555,2884,28152,0,0,0,0,0.00,0.00,0.00,0.00
2014-03-13 21:10:00,2,20992,0,0.00,2,2,0,2,15255,29155,5210,18304,0,0,0,0,0.00,0.00,0.00,0.00
2014-03-13 21:20:00,2,18247,0,0.00,2,2,0,2,10949,24317,4802,19560,0,0,0,0,0.00,0.00,0.00,0.00
2014-03-13 21:30:00,2,16051,0,0.00,2,2,0,2,8437,22188,4399,16188,0,0,0,0,0.00,0.00,0.00,0.00
2014-03-13 21:40:00,2,14810,0,0.00,2,2,0,2,9831,19840,3239,15716,0,0,0,0,0.00,0.00,0.00,0.00
2014-03-13 21:50:00,2,20910,0,0.00,2,2,0,2,11525,26964,5464,24592,0,0,0,0,0.00,0.00,0.00,0.00
2014-03-13 22:00:00,2,20893,0,0.00,2,2,0,2,12762,25589,4346,22335,0,0,0,0,0.00,0.00,0.00,0.00
2014-03-13 22:10:00,2,15200,0,0.00,2,2,0,2,11359,23418,4097,13676,0,0,0,0,0.00,0.00,0.00,0.00
2014-03-13 22:20:00,2,14331,30,0.00,2,2,0,2,9988,21311,3878,13284,0,78,37,0,0.00,0.00,0.00,0.00
2014-03-13 22:30:00,2,9650,78,0.00,2,2,0,2,7369,12087,1581,9656,78,78,0,78,0.00,0.00,0.00,0.00
2014-03-13 22:40:00,2,10830,78,0.00,2,2,0,2,5944,16395,3456,10196,78,78,0,78,0.00,0.00,0.00,0.00
2014-03-13 22:50:00,2,9693,78,0.00,2,2,0,2,7006,14060,2607,8643,78,78,0,78,0.00,0.00,0.00,0.00
2014-03-13 23:00:00,2,8976,78,0.05,2,2,0,2,3480,14942,3699,9955,78,78,0,78,0.00,0.35,0.10,0.00
2014-03-13 23:10:00,2,4006,72,0.52,2,2,0,2,1807,7440,1840,3149,71,77,2,71,0.05,1.05,0.32,0.47
2014-03-13 23:20:00,2,14177,72,0.06,2,2,0,2,7020,24765,6226,11006,71,77,2,71,0.00,0.15,0.06,0.05
2014-03-13 23:30:00,2,27643,8,0.00,2,2,0,2,20471,32124,4048,29480,0,78,23,0,0.00,0.00,0.00,0.00
2014-03-13 23:40:00,2,27481,0,0.00,2,2,0,2,22886,32514,3015,26758,0,0,0,0,0.00,0.00,0.00,0.00
2014-03-13 23:50:00,2,24463,0,0.00,2,2,0,2,22466,27929,1858,23941,0,0,0,0,0.00,0.00,0.00,0.00
